Location: Bucquoy
(50.1391°N, 2.7097°E)
Time: 03:44:17
(UTC+00:00)

Landsat 4 - Pass Details

Date: 06 May 2021
Orbit: 505 x 520 km, 98.2° (Epoch: 22 June)

Event Time Altitude Azimuth Distance (km) Brightness Sun altitude
Rises 02:15:57 0° 11° (N) 2,632 8.5 -15.6°
Reaches altitude 10° 02:18:04 10° 8° (N) 1,743 7.3 -15.4°
Maximum altitude 02:21:46 61° 288° (WNW) 589 3.8 -15.0°
Enters shadow 02:23:33 28° 218° (SW) 984 4.5 -14.8°
